www.pogodaiklimat.ru

Погода и климат >> Архив погоды >> Россия >> Якутия >> Охотский Перевоз


ПОГОДА в Охотском Перевозе

  • Прогноз погоды в Охотском Перевозе
  • Монитор погоды в Охотском Перевозе

АРХИВ ПОГОДЫ в Охотском Перевозе

Время (UTC), дата Ветер
(напр.,м/с)
 
Видим.   Явления Облачность Т
(С)
Тd
(С)
f
(%)
Тe
(С)
Тes
(С)
Комфортность P
(гПа)
Po
(гПа)
Тmin
(С)
Tmax
(С)
R
(мм)
R24
(мм)
S
(см)
09 9.06 Ю 5 20 км гроза без осадков 8/8 600 м
[Cb calv]
+19.9 +5.6 39 +20 +21 1010.2 993.8 +23.0
12 9.06 Ю 6 20 км {гроза} 8/8 1000 м
[Sc diur, vesp Ci fib]
+16.3 +5.2 48 +15 +15 1011.1 994.5
15 9.06 Ю 2 10 км 3/0
[Ci fib]
+12.8 +5.3 60 +12 +12 1012.5 995.6
18 9.06 Ю 2 20 км 3/1 1000 м
[Sc Ci fib]
+8.0 +4.8 80 +6 +6 1013.0 995.9
21 9.06 Ю 2 20 км 1/0
[Ci fib]
+14.1 +4.9 54 +14 +17 1013.7 996.9 +8.0
00 10.06 Ю 3 50 км 3/1 600 м
[Cu med, cong Ci fib]
+17.8 +6.5 47 +18 +25 1013.1 996.6
03 10.06 Ю 3 50 км 8/5 600 м
[Cb calv Cs]
+19.0 +5.9 42 +20 +25 1011.9 995.5
06 10.06 Ю 3 50 км 5/5 600 м
[Cb calv]
+21.9 +6.4 37 +23 +27 комфорт 1010.9 994.6
09 10.06 Ю 3 20 км 8/8 600 м
[Cu med, cong]
+22.0 +3.9 31 +22 +23 комфорт 1009.9 993.6 +22.4
12 10.06 Ю 2 20 км 9/0
[Ci fib]
+19.1 +3.4 35 +20 +20 1010.5 994.1
15 10.06 Ю 1 10 км 3/1 1000 м
[Sc Ci fib]
+11.2 +5.6 68 +11 +11 1012.0 995.1
18 10.06 Ю 1 20 км 8/1 1000 м
[Sc Cs]
+8.6 +6.4 86 +8 +8 1013.5 996.5
21 10.06 Ю 2 20 км 4/1 1000 м
[Sc Ci fib]
+13.0 +4.2 55 +12 +15 1013.6 996.7 +7.6
00 11.06 Ю 3 20 км 3/1 1000 м
[Sc Ci fib]
+16.8 +5.1 46 +17 +24 1013.3 996.7
03 11.06 Ю 3 20 км 3/1 600 м
[Cu med, cong Ci fib]
+19.7 +4.7 37 +20 +30 1011.4 995.0
06 11.06 Ю 3 20 км 3/3 600 м
[Cu med, cong Ci fib]
+21.8 +1.9 27 +22 +27 комфорт 1008.6 992.4
09 11.06 ЮЗ 2 20 км 3/3 600 м
[Cu med, cong Ci fib]
+22.5 +1.1 24 +22 +24 комфорт 1007.1 990.9 +22.5
12 11.06 Ю 1 20 км 3/0
[Ci sp]
+20.2 +2.1 30 +22 +22 комфорт 1007.4 991.1
15 11.06 С 1 10 км 3/1 1000 м
[Sc Ci sp]
+9.3 +7.2 87 +9 +9 1008.2 991.3
18 11.06 З 1 20 км 3/1 1000 м
[Sc Ci fib]
+5.7 +4.3 91 +4 +4 1009.3 992.1
21 11.06 штиль 0 20 км 3/1 1000 м
[Sc Ci fib]
+7.3 +5.0 85 +6 +10 1009.8 992.7 +5.0
00 12.06 Ю 2 50 км 1/1 1000 м
[Sc]
+19.0 +2.6 34 +20 +29 1009.3 992.8
03 12.06 Ю 3 50 км 3/3 600 м
[Cu hum]
+21.8 +2.6 28 +22 +30 комфорт 1007.9 991.7
06 12.06 ЮВ 3 50 км 6/6 600 м
[Cu med, cong]
+21.4 +6.5 38 +22 +25 комфорт 1006.3 990.1
09 12.06 Ю 3 20 км 6/6 600 м
[Cu med, cong]
+20.9 +6.5 39 +22 +23 комфорт 1005.6 989.4 +23.9
12 12.06 Ю 4 20 км 5/5 1000 м
[Sc diur, vesp]
+19.6 +4.5 37 +20 +20 1006.5 990.2
15 12.06 Ю 4 10 км 3/3 1000 м
[Sc]
+16.0 +2.8 41 +15 +15 1007.8 991.2
18 12.06 Ю 3 20 км 8/8 1000 м
[Sc]
+14.3 +1.7 42 +14 +14 1009.6 992.8
21 12.06 Ю 4 20 км 3/1 1000 м
[Sc Ci fib]
+13.8 -0.1 38 +13 +14 1011.4 994.6 +11.8
00 13.06 Ю 3 20 км 4/1 1000 м
[Sc Ci fib]
+16.2 +0.2 34 +16 +23 1012.0 995.4
03 13.06 ЮЗ 3 50 км 3/3 1000 м
[Sc]
+18.6 -2.6 24 +19 +27 1011.4 994.9
06 13.06 ЮВ 2 50 км 5/3 1000 м
[Sc Ac trans]
+19.0 +2.0 32 +20 +25 1010.5 994.0
09 13.06 З 1 50 км 3/3 1000 м
[Sc diur, vesp]
+21.1 +2.0 28 +21 +23 комфорт 1010.2 993.8 +21.3
12 13.06 штиль 0 20 км 3/1 1000 м
[Sc Ac trans]
+17.6 +6.3 47 +18 +18 1011.3 994.8
15 13.06 СЗ 1 10 км 3/0
[Ac trans]
+9.2 +6.4 83 +9 +9 1012.9 995.9
18 13.06 ЮЗ 2 20 км 8/8 1000 м
[Sc]
+8.2 +5.1 81 +6 +6 1014.5 997.4
21 13.06 Ю 2 20 км 9/9 1000 м
[Sc]
+11.3 +5.2 66 +10 +11 1015.7 998.7 +6.5
00 14.06 Ю 3 20 км 9/9 1000 м
[Sc]
+15.2 +2.8 43 +15 +16 1015.8 999.1
03 14.06 Ю 2 20 км 6/5 1000 м
[Cu Sc Ci fib]
+18.4 +5.8 44 +19 +26 1015.5 998.9
06 14.06 ЮВ 2 50 км 5/5 1000 м
[Cu Sc]
+21.4 +4.7 34 +22 +27 комфорт 1014.1 997.7
09 14.06 Ю 3 20 км 4/4 1000 м
[Cu Sc]
+21.1 +5.4 36 +22 +23 комфорт 1012.5 996.2 +22.0
12 14.06 Ю 2 20 км 4/4 1000 м
[Sc]
+17.3 +5.6 46 +18 +18 1012.7 996.2
15 14.06 Ю 2 10 км 6/6 1000 м
[Sc]
+13.4 +6.3 62 +13 +13 1013.6 996.8
18 14.06 ЮЗ 1 20 км 3/3 1000 м
[Sc]
+8.3 +6.6 89 +7 +7 1014.2 997.1
21 14.06 штиль 0 20 км 3/3 1000 м
[Sc]
+10.0 +5.9 76 +9 +12 1014.8 997.7 +7.4
00 15.06 ЮВ 1 20 км 4/3 1000 м
[Cu Sc Ci fib]
+16.4 +7.2 54 +17 +25 1014.1 997.5
03 15.06 штиль 0 20 км 8/8 600 м
[Cb calv Ci sp]
+21.5 +9.9 48 +23 +27 комфорт 1012.5 996.2
06 15.06 штиль 0 20 км 9/8 600 м
[Cb calv As trans Ci fib]
+20.6 +8.9 47 +22 +24 комфорт 1011.3 994.9
09 15.06 Ю 2 20 км 9/8 600 м
[Cb calv As trans Ci fib]
+22.2 +7.4 38 +23 +23 комфорт 1010.2 993.9 +24.5
12 15.06 Ю 5 20 км {ливн. осадки} 9/9 600 м
[Cb calv]
+17.0 +10.9 67 +16 +16 1011.5 995.0
15 15.06 Ю 4 10 км 9/9 1000 м
[Sc diur, vesp]
+14.9 +9.1 68 +14 +14 1013.5 996.8
18 15.06 Ю 4 20 км 9/9 1000 м
[Sc]
+13.0 +7.9 71 +11 +11 1014.1 997.3
21 15.06 Ю 5 10 км слаб. дождь 10/10 1000 м
[Sc]
+12.0 +9.0 82 +10 +10 1015.4 998.4 +11.8 4
00 16.06 В 1 20 км {дождь} ясно +16.4 +10.0 66 +17 +29 опасность
простуды
1015.1 998.4 +11.1
03 16.06 С 2 20 км 8/8 600 м
[Cb calv]
+18.0 +9.2 56 +19 +21 1013.9 997.4
06 16.06 С 2 20 км 8/8 600 м
[Cb calv]
+19.4 +7.2 45 +21 +23 комфорт 1012.5 996.1

 

Местоположение метеостанции Охотский Перевоз (Якутия, Россия): широта 61.87 долгота 135.50 высота над уровнем моря 141 м.

В архиве по умолчанию представлена погода в Охотском Перевозе за последнюю неделю. Архивные данные за месяц целиком и за предыдущие месяцы, начиная с января 2011 года, Вы можете получить, выбрав интересующий диапазон дат из раскрывающегося списка и нажав кнопку "Ввод!".


*Определитесь, кто Вы:
робот инопланетянин человек

Внимание! Время в таблицах - всемирное. Для получения местного времени необходимо прибавить поправку, которая равна 9 ч.

Смотрите также архив погоды в соседних городах и на ближайших метеорологических станциях:

Погода в Ытык-Кюёле (Якутия, Россия) (118 км)
Погода в Крест-Хальджае (Якутия, Россия) (120 км)
Погода в Теплом Ключе (Якутия, Россия) (121 км)
Погода в Чурапче (Якутия, Россия) (153 км)
Погода в Усть-Мае (Якутия, Россия) (179 км)
Погода в Амге (Якутия, Россия) (220 км)
Погода в Томпо (Якутия, Россия) (232 км)
Погода в Верхоянском Перевозе (Якутия, Россия) (241 км)
Погода в Восточной (Якутия, Россия) (259 км)
Погода в Югоренке (Якутия, Россия) (260 км)

Пояснения к столбцам:

Ветер - указаны скорость ветра в м/с - средняя за 10 мин, порывы в срок и между сроками (в фигурных скобках) и направление, откуда дует ветер: С - северный, СВ - северо-восточный, В - восточный, ЮВ - юго-восточный, Ю - южный, ЮЗ - юго-западный, З - западный, СЗ - северо-западный.
Видимость - горизонтальная дальность видимости в метрах или километрах. При видимости от 1 до 10 км при отсутствии осадков обычно наблюдается дымка, при ухудшении видимости до 1 км и менее - туман. В сухую погоду видимость может ухудшаться дымом, пылью или мглою.
Явления - указаны атмосферные явления, наблюдавшиеся в срок или в последний час перед сроком; фигурными скобками обозначены явления, наблюдавшиеся между сроками (за 1-3 часа до срока); квадратными скобками обозначены град или гололедные отложения с указанием их диаметра в мм.
Облачность - указаны через наклонную черту общая и нижняя облачность в баллах и высота нижней границы облаков в метрах; квадратными скобками обозначены формы облаков: Ci - перистые, Cs - перисто-слоистые, Cc - перисто-кучевые, Ac - высококучевые, As - высокослоистые, Sc - слоисто-кучевые, Ns - слоисто-дождевые, Cu - кучевые, Cb - кучево-дождевые. Подробнее классификацию облаков см. в Атласе облаков (PDF).
T - Температура воздуха - температура, измеренная на высоте 2 м над землей.
Td - Температура точки росы - температура, при понижении до которой содержащийся в воздухе водяной пар достигнет насыщения.
f - Относительная влажность воздуха - влажноcть воздуха, измеренная на высоте 2 м над землей.
Te - Эффективная температура - температура, которую ощущает одетый по сезону человек в тени. Характеристика душности погоды. При расчете учитывается влияние влажности воздуха и скорости ветра на теплоощущения человека.
Tes - Эффективная температура на солнце - температура, которую ощущает человек, с поправкой на солнечный нагрев. Характеристика знойности погоды. Зависит от высоты солнца над горизонтом, облачности и скорости ветра. Ночью, в пасмурную погоду, а также при ветре 12 м/с и более поправка равна нулю.
P - Атмосферное давление - приведенное к уровню моря атмосферное давление.
Po - Атмосферное давление - измеренное на уровне метеостанции атмосферное давление.
Tmin - Минимальная температура - минимум температуры воздуха на высоте 2 м над землей.
Tmax - Максимальная температура - максимум температуры воздуха на высоте 2 м над землей.
R - Количество осадков - Количество выпавших осадков за период времени, мм. При наведении курсора мыши на число - период времени, за который выпало указанное количество осадков.
R24 - Количество осадков - Количество выпавших осадков за 24 часа, мм.
S - Снежный покров - Высота снежного покрова, см. При наведении курсора мыши на число - состояние снежного покрова и степень покрытия местности в баллах.